User: anonymous   Login
Location: �clusier
(49.9361°N, 2.7869°E)
Time: 08:11:05
(UTC+00:00)
Language:

FENGYUN 1C DEB - Orbit

View from above orbital plane
View from above orbital plane
View from above satellite
View from above satellite

Ground track
Ground track

The orbit data is extracted from the following two-line orbital elements,

1 36647U 99025DXR 22028.42318515  .00002214  00000-0  17418-2 0  9996
2 36647  96.1288 286.4177 0273118  54.5040 308.1272 13.76264930108842
Epoch (UTC): 28 January 2022 10:09:23
Eccentricity: 0.0273118
inclination: 96.1288°
perigee height: 776 km
apogee height: 1178 km
right ascension of ascending node: 286.4177°
argument of perigee: 54.5040°
revolutions per day: 13.76264930
mean anomaly at epoch: 308.1272°
orbit number at epoch: 10884

The dashed part of the orbit path shows where the satellite is in the earth's shadow,  

DLR